Location: ????????
(60.4333°N, 46.4710°E)
Time: 19:02:44
(UTC+00:00)

Cosmos 2297 - Pass Details

Date: 25 November 2020
Orbit: 835 x 859 km, 71.0° (Epoch: 16 January)

Event Time Altitude Azimuth Distance (km) Brightness Sun altitude
Rises 14:38:15 0° 320° (NW) 3,408 7.3 -17.7°
Reaches altitude 10° 14:40:43 10° 317° (NW) 2,473 6.5 -18.0°
Maximum altitude 14:46:17 61° 239° (WSW) 964 4.2 -18.7°
Drops below altitude 10° 14:51:52 10° 161° (SSE) 2,476 6.0 -19.4°
Sets 14:54:21 0° 157° (SSE) 3,412 6.7 -19.7°
